Private Wetterstation Wechselburg
Wetterdaten: Samstag, 02.04.2011
Datum Zeit Temp. +2m Bodentemp. Temp.+5cm Temp. Wind Windchill X Diff Temp. Feuchte +2m Feuchte +5cm Sonnenschein Luftdruck Regen Wind Richtung Richtung Sonnenschein UV Taupunkt Windchill Windben
02.04.2011 00:00 13,7 C 13,1 C 13,1 C 13,6 C 13,5 C 0,0 C 76 % 79 % 0 % 1020,7 hPa 0,0 l/m 0,6 km/h (0 Bft) W-SW 247 0 min 0,0 UV-I 9,5 C 13,5 C 0,0 km/h (0 Bft)
02.04.2011 00:08 13,7 C 13,1 C 13,1 C 13,6 C 13,4 C 0,0 C 77 % 80 % 0 % 1020,7 hPa 0,0 l/m 0,5 km/h (0 Bft) N 0 0 min 0,0 UV-I 9,7 C 13,4 C 0,0 km/h (0 Bft)
02.04.2011 00:15 13,6 C 13,1 C 12,9 C 13,5 C 13,3 C 0,0 C 77 % 80 % 0 % 1021,2 hPa 0,0 l/m 0,5 km/h (0 Bft) SW 225 0 min 0,0 UV-I 9,6 C 13,3 C 1,6 km/h (1 Bft)
02.04.2011 00:20 13,6 C 13,1 C 12,9 C 13,5 C 13,3 C 0,0 C 77 % 80 % 0 % 1021,2 hPa 0,0 l/m 0,6 km/h (0 Bft) O-SO 112 0 min 0,0 UV-I 9,6 C 13,3 C 0,0 km/h (0 Bft)
02.04.2011 00:25 13,6 C 13,1 C 12,8 C 13,5 C 13,3 C 0,0 C 77 % 80 % 0 % 1021,2 hPa 0,0 l/m 0,2 km/h (0 Bft) O-SO 112 0 min 0,0 UV-I 9,6 C 13,3 C 0,0 km/h (0 Bft)
02.04.2011 00:30 13,6 C 13,1 C 12,9 C 13,5 C 13,3 C 0,0 C 78 % 80 % 0 % 1021,2 hPa 0,0 l/m 0,0 km/h (0 Bft) O-SO 112 0 min 0,0 UV-I 9,8 C 13,3 C 0,0 km/h (0 Bft)
02.04.2011 00:35 13,6 C 13,1 C 12,8 C 13,5 C 13,3 C 0,0 C 78 % 80 % 0 % 1020,9 hPa 0,0 l/m 0,0 km/h (0 Bft) N-NO 22 0 min 0,0 UV-I 9,8 C 13,3 C 0,0 km/h (0 Bft)
02.04.2011 00:40 13,6 C 13,1 C 12,8 C 13,5 C 13,3 C 0,0 C 78 % 81 % 0 % 1020,9 hPa 0,0 l/m 0,0 km/h (0 Bft) N-NO 22 0 min 0,0 UV-I 9,8 C 13,3 C 0,0 km/h (0 Bft)
02.04.2011 00:45 13,5 C 13,1 C 12,8 C 13,4 C 13,2 C 0,0 C 78 % 81 % 0 % 1020,9 hPa 0,0 l/m 0,0 km/h (0 Bft) O-SO 112 0 min 0,0 UV-I 9,7 C 13,2 C 0,0 km/h (0 Bft)
02.04.2011 00:50 13,5 C 13,1 C 12,8 C 13,4 C 13,1 C 0,0 C 78 % 81 % 0 % 1020,9 hPa 0,0 l/m 0,0 km/h (0 Bft) N 360 0 min 0,0 UV-I 9,7 C 13,1 C 0,0 km/h (0 Bft)
02.04.2011 00:55 13,4 C 13,1 C 12,7 C 13,3 C 13,0 C 0,0 C 78 % 81 % 0 % 1021,0 hPa 0,0 l/m 0,0 km/h (0 Bft) S-SW 202 0 min 0,0 UV-I 9,6 C 13,0 C 0,0 km/h (0 Bft)
02.04.2011 01:00 13,4 C 13,1 C 12,7 C 13,2 C 12,9 C 0,0 C 78 % 81 % 0 % 1021,0 hPa 0,0 l/m 0,0 km/h (0 Bft) NO 45 0 min 0,0 UV-I 9,6 C 12,9 C 0,0 km/h (0 Bft)
02.04.2011 01:10 13,3 C 13,2 C 12,5 C 13,0 C 12,5 C 0,0 C 78 % 81 % 0 % 1021,0 hPa 0,0 l/m 0,0 km/h (0 Bft) N 0 0 min 0,0 UV-I 9,5 C 12,5 C 0,0 km/h (0 Bft)
02.04.2011 01:15 13,1 C 13,2 C 12,2 C 12,8 C 12,3 C 0,0 C 79 % 82 % 0 % 1020,5 hPa 0,0 l/m 0,0 km/h (0 Bft) NW 315 0 min 0,0 UV-I 9,5 C 12,3 C 0,0 km/h (0 Bft)
02.04.2011 01:20 13,1 C 13,2 C 12,2 C 12,8 C 12,2 C 0,0 C 79 % 82 % 0 % 1020,5 hPa 0,0 l/m 0,0 km/h (0 Bft) NW 315 0 min 0,0 UV-I 9,5 C 12,2 C 0,0 km/h (0 Bft)
02.04.2011 01:25 13,1 C 13,2 C 12,0 C 12,8 C 12,1 C 0,0 C 79 % 82 % 0 % 1020,5 hPa 0,0 l/m 0,0 km/h (0 Bft) O 90 0 min 0,0 UV-I 9,5 C 12,1 C 0,0 km/h (0 Bft)
02.04.2011 01:30 12,9 C 13,2 C 12,0 C 12,6 C 12,1 C 0,0 C 80 % 82 % 0 % 1020,5 hPa 0,0 l/m 0,0 km/h (0 Bft) N 360 0 min 0,0 UV-I 9,5 C 12,1 C 0,0 km/h (0 Bft)
02.04.2011 01:35 12,9 C 13,2 C 12,0 C 12,6 C 12,1 C 0,0 C 80 % 83 % 0 % 1020,9 hPa 0,0 l/m 0,0 km/h (0 Bft) N 360 0 min 0,0 UV-I 9,5 C 12,1 C 0,0 km/h (0 Bft)
02.04.2011 01:40 12,9 C 13,2 C 11,9 C 12,6 C 12,1 C 0,0 C 80 % 83 % 0 % 1020,9 hPa 0,0 l/m 0,0 km/h (0 Bft) O-NO 67 0 min 0,0 UV-I 9,5 C 12,1 C 0,0 km/h (0 Bft)
02.04.2011 01:45 12,9 C 13,2 C 12,0 C 12,7 C 12,2 C 0,0 C 80 % 83 % 0 % 1020,9 hPa 0,0 l/m 0,0 km/h (0 Bft) O-NO 67 0 min 0,0 UV-I 9,5 C 12,2 C 0,0 km/h (0 Bft)
02.04.2011 01:50 12,8 C 13,2 C 11,9 C 12,6 C 12,2 C 0,0 C 80 % 83 % 0 % 1020,9 hPa 0,0 l/m 0,0 km/h (0 Bft) NO 45 0 min 0,0 UV-I 9,4 C 12,2 C 0,0 km/h (0 Bft)
02.04.2011 01:55 12,8 C 13,2 C 11,9 C 12,6 C 12,1 C 0,0 C 80 % 84 % 0 % 1020,2 hPa 0,0 l/m 0,0 km/h (0 Bft) NO 45 0 min 0,0 UV-I 9,4 C 12,1 C 0,0 km/h (0 Bft)
02.04.2011 02:00 12,8 C 13,2 C 11,9 C 12,5 C 12,0 C 0,0 C 80 % 84 % 0 % 1020,2 hPa 0,0 l/m 0,0 km/h (0 Bft) NO 45 0 min 0,0 UV-I 9,4 C 12,0 C 0,0 km/h (0 Bft)
02.04.2011 02:09 12,6 C 13,2 C 11,7 C 12,3 C 11,8 C 0,0 C 80 % 84 % 0 % 1020,2 hPa 0,0 l/m 0,0 km/h (0 Bft) N 0 0 min 0,0 UV-I 9,2 C 11,8 C 0,0 km/h (0 Bft)
02.04.2011 02:15 12,6 C 13,3 C 11,5 C 12,3 C 11,6 C 0,0 C 81 % 84 % 0 % 1020,1 hPa 0,0 l/m 0,0 km/h (0 Bft) NW 315 0 min 0,0 UV-I 9,4 C 11,6 C 0,0 km/h (0 Bft)
02.04.2011 02:20 12,7 C 13,2 C 11,5 C 12,3 C 11,6 C 0,0 C 81 % 84 % 0 % 1020,1 hPa 0,0 l/m 0,0 km/h (0 Bft) NW 315 0 min 0,0 UV-I 9,5 C 11,6 C 0,0 km/h (0 Bft)
02.04.2011 02:25 12,5 C 13,3 C 11,5 C 12,2 C 11,5 C 0,0 C 81 % 84 % 0 % 1020,1 hPa 0,0 l/m 0,0 km/h (0 Bft) O-NO 67 0 min 0,0 UV-I 9,3 C 11,5 C 0,0 km/h (0 Bft)
02.04.2011 02:30 12,4 C 13,3 C 11,4 C 12,1 C 11,4 C 0,0 C 81 % 84 % 0 % 1020,1 hPa 0,0 l/m 0,0 km/h (0 Bft) O-NO 67 0 min 0,0 UV-I 9,2 C 11,4 C 0,0 km/h (0 Bft)
02.04.2011 02:35 12,3 C 13,3 C 11,2 C 11,9 C 11,2 C 0,0 C 81 % 85 % 0 % 1020,4 hPa 0,0 l/m 0,0 km/h (0 Bft) O-NO 67 0 min 0,0 UV-I 9,1 C 11,2 C 0,0 km/h (0 Bft)
02.04.2011 02:40 12,2 C 13,3 C 11,3 C 11,9 C 11,2 C 0,0 C 81 % 85 % 0 % 1020,4 hPa 0,0 l/m 0,0 km/h (0 Bft) O-NO 67 0 min 0,0 UV-I 9,0 C 11,2 C 0,0 km/h (0 Bft)
02.04.2011 02:45 12,2 C 13,4 C 11,1 C 11,8 C 11,0 C 0,0 C 81 % 85 % 0 % 1020,4 hPa 0,0 l/m 0,0 km/h (0 Bft) O-NO 67 0 min 0,0 UV-I 9,0 C 11,0 C 0,0 km/h (0 Bft)
02.04.2011 02:50 12,1 C 13,4 C 11,1 C 11,7 C 10,8 C 0,0 C 81 % 85 % 0 % 1020,4 hPa 0,0 l/m 0,0 km/h (0 Bft) SW 225 0 min 0,0 UV-I 8,9 C 10,8 C 0,0 km/h (0 Bft)
02.04.2011 02:55 12,0 C 13,4 C 10,9 C 11,5 C 10,6 C 0,0 C 81 % 86 % 0 % 1019,7 hPa 0,0 l/m 0,2 km/h (0 Bft) SW 225 0 min 0,0 UV-I 8,8 C 10,6 C 2,3 km/h (1 Bft)
02.04.2011 03:00 12,1 C 13,4 C 10,9 C 11,6 C 10,6 C 0,0 C 82 % 86 % 0 % 1019,7 hPa 0,0 l/m 0,5 km/h (0 Bft) S 180 0 min 0,0 UV-I 9,1 C 10,6 C 0,0 km/h (0 Bft)
02.04.2011 03:09 11,9 C 13,4 C 10,7 C 11,3 C 10,2 C 0,0 C 82 % 85 % 0 % 1019,7 hPa 0,0 l/m 0,0 km/h (0 Bft) N 0 0 min 0,0 UV-I 8,9 C 10,2 C 0,0 km/h (0 Bft)
02.04.2011 03:15 11,9 C 13,4 C 10,7 C 11,3 C 10,1 C 0,0 C 82 % 86 % 0 % 1019,6 hPa 0,0 l/m 0,0 km/h (0 Bft) SO 135 0 min 0,0 UV-I 8,9 C 10,1 C 0,0 km/h (0 Bft)
02.04.2011 03:20 11,7 C 13,4 C 10,4 C 11,1 C 10,0 C 0,0 C 82 % 86 % 0 % 1019,6 hPa 0,0 l/m 0,0 km/h (0 Bft) O-NO 67 0 min 0,0 UV-I 8,7 C 10,0 C 0,0 km/h (0 Bft)
02.04.2011 03:25 11,6 C 13,4 C 10,4 C 11,1 C 10,0 C 0,0 C 82 % 86 % 0 % 1019,6 hPa 0,0 l/m 0,0 km/h (0 Bft) O-NO 67 0 min 0,0 UV-I 8,6 C 10,0 C 0,0 km/h (0 Bft)
02.04.2011 03:30 11,5 C 13,4 C 10,3 C 11,0 C 9,9 C 0,0 C 82 % 86 % 0 % 1019,6 hPa 0,0 l/m 0,0 km/h (0 Bft) SO 135 0 min 0,0 UV-I 8,5 C 9,9 C 0,0 km/h (0 Bft)
02.04.2011 03:35 11,5 C 13,4 C 10,2 C 10,9 C 9,7 C 0,0 C 83 % 86 % 0 % 1019,5 hPa 0,0 l/m 0,0 km/h (0 Bft) SO 135 0 min 0,0 UV-I 8,7 C 9,7 C 0,0 km/h (0 Bft)
02.04.2011 03:40 11,5 C 13,4 C 10,2 C 10,9 C 9,6 C 0,0 C 83 % 86 % 0 % 1019,5 hPa 0,0 l/m 0,0 km/h (0 Bft) SW 225 0 min 0,0 UV-I 8,7 C 9,6 C 0,0 km/h (0 Bft)
02.04.2011 03:45 11,5 C 13,4 C 10,1 C 10,8 C 9,5 C 0,0 C 83 % 87 % 0 % 1019,5 hPa 0,0 l/m 0,0 km/h (0 Bft) S 180 0 min 0,0 UV-I 8,7 C 9,5 C 0,0 km/h (0 Bft)
02.04.2011 03:50 11,5 C 13,4 C 10,1 C 10,9 C 9,7 C 0,0 C 83 % 87 % 0 % 1019,5 hPa 0,0 l/m 0,2 km/h (0 Bft) S 180 0 min 0,0 UV-I 8,7 C 9,7 C 0,0 km/h (0 Bft)
02.04.2011 03:55 11,5 C 13,4 C 10,0 C 10,9 C 9,7 C 0,0 C 84 % 87 % 0 % 1019,8 hPa 0,0 l/m 0,2 km/h (0 Bft) S-SO 157 0 min 0,0 UV-I 8,9 C 9,7 C 0,0 km/h (0 Bft)
02.04.2011 04:00 11,4 C 13,4 C 10,0 C 10,9 C 9,8 C 0,0 C 84 % 87 % 0 % 1019,8 hPa 0,0 l/m 0,0 km/h (0 Bft) S 180 0 min 0,0 UV-I 8,8 C 9,8 C 0,0 km/h (0 Bft)
02.04.2011 04:09 11,3 C 13,4 C 10,1 C 10,8 C 9,8 C 0,0 C 83 % 88 % 0 % 1019,8 hPa 0,0 l/m 0,0 km/h (0 Bft) N 0 0 min 0,0 UV-I 8,5 C 9,8 C 0,0 km/h (0 Bft)
02.04.2011 04:15 11,3 C 13,3 C 10,0 C 10,8 C 9,7 C 0,0 C 83 % 87 % 0 % 1019,4 hPa 0,0 l/m 0,0 km/h (0 Bft) S 180 0 min 0,0 UV-I 8,5 C 9,7 C 0,0 km/h (0 Bft)
02.04.2011 04:20 11,3 C 13,3 C 10,1 C 10,8 C 9,8 C 0,0 C 84 % 88 % 0 % 1019,4 hPa 0,0 l/m 0,2 km/h (0 Bft) S-SW 202 0 min 0,0 UV-I 8,7 C 9,8 C 0,0 km/h (0 Bft)
02.04.2011 04:25 11,3 C 13,3 C 10,0 C 10,8 C 9,7 C 0,0 C 84 % 88 % 0 % 1019,4 hPa 0,0 l/m 0,2 km/h (0 Bft) S 180 0 min 0,0 UV-I 8,7 C 9,7 C 0,0 km/h (0 Bft)
02.04.2011 04:30 11,3 C 13,3 C 10,0 C 10,8 C 9,7 C 0,0 C 84 % 88 % 0 % 1019,4 hPa 0,0 l/m 0,0 km/h (0 Bft) S 180 0 min 0,0 UV-I 8,7 C 9,7 C 0,0 km/h (0 Bft)
02.04.2011 04:35 11,2 C 13,3 C 10,0 C 10,6 C 9,5 C 0,0 C 84 % 88 % 0 % 1019,6 hPa 0,0 l/m 0,0 km/h (0 Bft) S 180 0 min 0,0 UV-I 8,6 C 9,5 C 0,0 km/h (0 Bft)
02.04.2011 04:40 11,1 C 13,3 C 9,9 C 10,5 C 9,4 C 0,0 C 84 % 88 % 0 % 1019,6 hPa 0,0 l/m 0,0 km/h (0 Bft) S 180 0 min 0,0 UV-I 8,5 C 9,4 C 0,0 km/h (0 Bft)
02.04.2011 04:45 11,0 C 13,3 C 9,8 C 10,5 C 9,4 C 0,0 C 85 % 88 % 0 % 1019,6 hPa 0,0 l/m 0,0 km/h (0 Bft) SO 135 0 min 0,0 UV-I 8,6 C 9,4 C 0,0 km/h (0 Bft)
02.04.2011 04:50 10,9 C 13,3 C 9,8 C 10,4 C 9,3 C 0,0 C 85 % 88 % 0 % 1019,6 hPa 0,0 l/m 0,0 km/h (0 Bft) SO 135 0 min 0,0 UV-I 8,5 C 9,3 C 0,0 km/h (0 Bft)
02.04.2011 04:55 10,8 C 13,3 C 9,7 C 10,3 C 9,2 C 0,0 C 85 % 88 % 0 % 1019,6 hPa 0,0 l/m 0,0 km/h (0 Bft) SO 135 0 min 0,0 UV-I 8,4 C 9,2 C 0,0 km/h (0 Bft)
02.04.2011 05:00 10,8 C 13,2 C 9,6 C 10,2 C 9,1 C 0,0 C 85 % 88 % 0 % 1019,6 hPa 0,0 l/m 0,0 km/h (0 Bft) SO 135 0 min 0,0 UV-I 8,4 C 9,1 C 0,0 km/h (0 Bft)
02.04.2011 05:09 10,7 C 13,2 C 9,4 C 10,2 C 9,1 C 0,0 C 84 % 88 % 0 % 1019,6 hPa 0,0 l/m 0,0 km/h (0 Bft) N 0 0 min 0,0 UV-I 8,1 C 9,1 C 0,0 km/h (0 Bft)
02.04.2011 05:15 10,7 C 13,2 C 9,4 C 10,2 C 9,1 C 0,0 C 85 % 89 % 0 % 1019,5 hPa 0,0 l/m 0,0 km/h (0 Bft) O 90 0 min 0,0 UV-I 8,3 C 9,1 C 0,0 km/h (0 Bft)
02.04.2011 05:20 10,7 C 13,2 C 9,4 C 10,2 C 9,1 C 0,0 C 85 % 89 % 0 % 1019,5 hPa 0,0 l/m 0,0 km/h (0 Bft) O 90 0 min 0,0 UV-I 8,3 C 9,1 C 0,0 km/h (0 Bft)
02.04.2011 05:25 10,5 C 13,2 C 9,4 C 10,1 C 9,2 C 0,0 C 85 % 89 % 0 % 1019,5 hPa 0,0 l/m 0,0 km/h (0 Bft) O-NO 67 0 min 0,0 UV-I 8,1 C 9,2 C 0,0 km/h (0 Bft)
02.04.2011 05:30 10,4 C 13,2 C 9,3 C 10,0 C 9,3 C 0,0 C 85 % 89 % 0 % 1019,5 hPa 0,0 l/m 0,0 km/h (0 Bft) O-NO 67 0 min 0,0 UV-I 8,0 C 9,3 C 0,0 km/h (0 Bft)
02.04.2011 05:35 10,5 C 13,1 C 9,4 C 10,1 C 9,2 C 0,0 C 86 % 89 % 0 % 1019,5 hPa 0,0 l/m 0,0 km/h (0 Bft) O-NO 67 0 min 0,0 UV-I 8,3 C 9,2 C 0,0 km/h (0 Bft)
02.04.2011 05:40 10,4 C 13,1 C 9,3 C 10,0 C 9,2 C 0,0 C 86 % 89 % 0 % 1019,5 hPa 0,0 l/m 0,0 km/h (0 Bft) O-NO 67 0 min 0,0 UV-I 8,2 C 9,2 C 0,0 km/h (0 Bft)
02.04.2011 05:45 10,4 C 13,1 C 9,2 C 10,0 C 9,1 C 0,0 C 86 % 89 % 0 % 1019,5 hPa 0,0 l/m 0,0 km/h (0 Bft) O-NO 67 0 min 0,0 UV-I 8,2 C 9,1 C 0,0 km/h (0 Bft)
02.04.2011 05:50 10,4 C 13,1 C 9,3 C 9,9 C 9,0 C 0,0 C 86 % 90 % 0 % 1019,5 hPa 0,0 l/m 0,0 km/h (0 Bft) O-NO 67 0 min 0,0 UV-I 8,2 C 9,0 C 0,0 km/h (0 Bft)
02.04.2011 05:55 10,3 C 13,1 C 9,1 C 9,9 C 9,0 C 0,0 C 86 % 89 % 0 % 1019,5 hPa 0,0 l/m 0,0 km/h (0 Bft) O-NO 67 0 min 0,0 UV-I 8,1 C 9,0 C 0,0 km/h (0 Bft)
02.04.2011 06:00 10,2 C 13,1 C 9,1 C 9,7 C 8,8 C 0,0 C 86 % 89 % 0 % 1019,5 hPa 0,0 l/m 0,0 km/h (0 Bft) O-NO 67 0 min 0,0 UV-I 8,0 C 8,8 C 0,0 km/h (0 Bft)
02.04.2011 06:09 10,2 C 13,0 C 8,8 C 9,6 C 8,5 C 0,0 C 85 % 90 % 0 % 1019,5 hPa 0,0 l/m 0,0 km/h (0 Bft) N 0 0 min 0,0 UV-I 7,8 C 8,5 C 0,0 km/h (0 Bft)
02.04.2011 06:15 10,1 C 13,0 C 8,8 C 9,6 C 8,5 C 0,0 C 86 % 90 % 0 % 1019,5 hPa 0,0 l/m 0,0 km/h (0 Bft) O-NO 67 0 min 0,0 UV-I 7,9 C 8,5 C 0,0 km/h (0 Bft)
02.04.2011 06:20 10,1 C 13,0 C 8,8 C 9,6 C 8,5 C 0,0 C 86 % 90 % 0 % 1019,5 hPa 0,0 l/m 0,0 km/h (0 Bft) O 90 0 min 0,0 UV-I 7,9 C 8,5 C 0,0 km/h (0 Bft)
02.04.2011 06:25 10,0 C 13,0 C 8,9 C 9,5 C 8,5 C 0,0 C 86 % 90 % 0 % 1019,5 hPa 0,0 l/m 0,0 km/h (0 Bft) O 90 0 min 0,0 UV-I 7,8 C 8,5 C 0,0 km/h (0 Bft)
02.04.2011 06:30 10,0 C 13,0 C 8,7 C 9,5 C 8,5 C 0,0 C 86 % 89 % 0 % 1019,5 hPa 0,0 l/m 0,0 km/h (0 Bft) W 270 0 min 0,0 UV-I 7,8 C 8,5 C 0,0 km/h (0 Bft)
02.04.2011 06:35 10,0 C 13,0 C 8,7 C 9,4 C 8,2 C 0,0 C 86 % 89 % 0 % 1019,6 hPa 0,0 l/m 0,0 km/h (0 Bft) W-NW 292 0 min 0,0 UV-I 7,8 C 8,2 C 0,0 km/h (0 Bft)
02.04.2011 06:40 9,9 C 13,0 C 8,5 C 9,3 C 8,0 C 0,0 C 86 % 89 % 0 % 1019,6 hPa 0,0 l/m 0,0 km/h (0 Bft) W-NW 292 0 min 0,0 UV-I 7,7 C 8,0 C 0,0 km/h (0 Bft)
02.04.2011 06:45 9,8 C 12,9 C 8,4 C 9,2 C 7,9 C 0,0 C 86 % 89 % 0 % 1019,6 hPa 0,0 l/m 0,0 km/h (0 Bft) SW 225 0 min 0,0 UV-I 7,6 C 7,9 C 0,0 km/h (0 Bft)
02.04.2011 06:50 9,8 C 12,9 C 8,4 C 9,2 C 8,0 C 0,0 C 86 % 90 % 0 % 1019,6 hPa 0,0 l/m 0,0 km/h (0 Bft) W 270 0 min 0,0 UV-I 7,6 C 8,0 C 0,0 km/h (0 Bft)
02.04.2011 06:55 9,9 C 12,9 C 8,4 C 9,3 C 8,0 C 0,0 C 86 % 90 % 0 % 1019,6 hPa 0,0 l/m 0,0 km/h (0 Bft) W-NW 292 0 min 0,0 UV-I 7,7 C 8,0 C 0,0 km/h (0 Bft)
02.04.2011 07:00 9,8 C 12,9 C 8,5 C 9,2 C 8,1 C 0,0 C 86 % 90 % 0 % 1019,6 hPa 0,0 l/m 0,0 km/h (0 Bft) O-NO 67 0 min 0,0 UV-I 7,6 C 8,1 C 0,0 km/h (0 Bft)
02.04.2011 07:09 9,9 C 12,9 C 8,5 C 9,4 C 8,5 C 0,0 C 87 % 90 % 0 % 1019,6 hPa 0,0 l/m 0,0 km/h (0 Bft) N 0 0 min 0,0 UV-I 7,8 C 8,5 C 0,0 km/h (0 Bft)
02.04.2011 07:15 10,0 C 12,9 C 8,7 C 9,6 C 8,7 C 0,0 C 87 % 91 % 0 % 1019,6 hPa 0,0 l/m 0,0 km/h (0 Bft) O-NO 67 0 min 0,0 UV-I 7,9 C 8,7 C 0,0 km/h (0 Bft)
02.04.2011 07:20 10,1 C 12,9 C 8,8 C 9,7 C 8,9 C 0,0 C 87 % 91 % 0 % 1019,6 hPa 0,0 l/m 0,0 km/h (0 Bft) O-NO 67 0 min 0,0 UV-I 8,0 C 8,9 C 0,0 km/h (0 Bft)
02.04.2011 07:25 10,1 C 12,9 C 8,9 C 9,8 C 9,1 C 0,0 C 87 % 91 % 0 % 1019,6 hPa 0,0 l/m 0,0 km/h (0 Bft) O-NO 67 0 min 0,0 UV-I 8,0 C 9,1 C 0,0 km/h (0 Bft)
02.04.2011 07:30 10,3 C 12,9 C 9,0 C 10,0 C 9,3 C 0,0 C 87 % 91 % 0 % 1019,6 hPa 0,0 l/m 0,0 km/h (0 Bft) NW 315 0 min 0,0 UV-I 8,2 C 9,3 C 0,0 km/h (0 Bft)
02.04.2011 07:35 10,2 C 12,9 C 9,1 C 10,0 C 9,5 C 0,0 C 86 % 91 % 0 % 1019,8 hPa 0,0 l/m 0,0 km/h (0 Bft) W-SW 247 0 min 0,0 UV-I 8,0 C 9,5 C 0,0 km/h (0 Bft)
02.04.2011 07:40 10,3 C 12,9 C 8,9 C 10,0 C 9,5 C 0,0 C 86 % 90 % 0 % 1019,8 hPa 0,0 l/m 0,0 km/h (0 Bft) W-NW 292 0 min 0,0 UV-I 8,1 C 9,5 C 0,0 km/h (0 Bft)
02.04.2011 07:45 10,3 C 12,9 C 9,1 C 10,0 C 9,5 C 0,0 C 86 % 90 % 0 % 1019,8 hPa 0,0 l/m 0,0 km/h (0 Bft) W-NW 292 0 min 0,0 UV-I 8,1 C 9,5 C 0,0 km/h (0 Bft)
02.04.2011 07:50 10,4 C 12,9 C 9,1 C 10,1 C 9,6 C 0,0 C 86 % 90 % 0 % 1019,8 hPa 0,0 l/m 0,0 km/h (0 Bft) W-NW 292 0 min 0,0 UV-I 8,2 C 9,6 C 0,0 km/h (0 Bft)
02.04.2011 07:55 10,5 C 12,8 C 9,3 C 10,3 C 10,0 C 0,0 C 86 % 91 % 0 % 1020,0 hPa 0,0 l/m 0,0 km/h (0 Bft) W-NW 292 0 min 0,0 UV-I 8,3 C 10,0 C 0,0 km/h (0 Bft)
02.04.2011 08:00 10,7 C 12,8 C 9,5 C 10,5 C 10,1 C 0,0 C 86 % 91 % 0 % 1020,0 hPa 0,0 l/m 0,0 km/h (0 Bft) W-NW 292 0 min 0,0 UV-I 8,5 C 10,1 C 0,0 km/h (0 Bft)
02.04.2011 08:09 10,9 C 12,8 C 9,8 C 10,8 C 10,6 C 0,0 C 86 % 90 % 0 % 1020,0 hPa 0,0 l/m 0,0 km/h (0 Bft) N 0 0 min 0,0 UV-I 8,7 C 10,6 C 0,0 km/h (0 Bft)
02.04.2011 08:15 11,2 C 12,7 C 10,0 C 11,1 C 11,0 C 0,0 C 86 % 91 % 0 % 1019,8 hPa 0,0 l/m 0,0 km/h (0 Bft) W 270 0 min 0,0 UV-I 8,9 C 11,0 C 0,0 km/h (0 Bft)
02.04.2011 08:20 11,5 C 12,7 C 10,3 C 11,4 C 11,3 C 0,0 C 87 % 91 % 0 % 1019,8 hPa 0,0 l/m 0,0 km/h (0 Bft) S 180 0 min 0,0 UV-I 9,4 C 11,3 C 0,0 km/h (0 Bft)
02.04.2011 08:25 11,7 C 12,5 C 10,7 C 13,5 C 13,5 C 1,8 C 86 % 91 % 47 % 1019,8 hPa 0,0 l/m 0,0 km/h (0 Bft) S 180 0 min 0,1 UV-I 9,4 C 13,5 C 0,0 km/h (0 Bft)
02.04.2011 08:30 11,9 C 12,5 C 10,9 C 14,7 C 14,7 C 2,8 C 85 % 90 % 74 % 1019,8 hPa 0,0 l/m 0,2 km/h (0 Bft) W-SW 247 5 min 0,1 UV-I 9,5 C 14,7 C 0,0 km/h (0 Bft)
02.04.2011 08:35 12,1 C 12,5 C 11,2 C 16,1 C 16,1 C 4,0 C 84 % 89 % 100 % 1019,6 hPa 0,0 l/m 0,2 km/h (0 Bft) S 180 5 min 0,1 UV-I 9,5 C 16,1 C 1,6 km/h (1 Bft)
02.04.2011 08:40 12,3 C 12,4 C 11,5 C 16,7 C 16,7 C 4,4 C 84 % 88 % 100 % 1019,6 hPa 0,0 l/m 0,2 km/h (0 Bft) S 180 5 min 0,1 UV-I 9,7 C 16,7 C 0,0 km/h (0 Bft)
02.04.2011 08:45 12,4 C 12,3 C 11,8 C 17,5 C 17,5 C 5,1 C 84 % 87 % 100 % 1019,6 hPa 0,0 l/m 0,3 km/h (0 Bft) S 180 5 min 0,2 UV-I 9,8 C 17,5 C 0,0 km/h (0 Bft)
02.04.2011 08:50 12,7 C 12,3 C 11,9 C 17,7 C 17,7 C 5,0 C 84 % 87 % 100 % 1019,6 hPa 0,0 l/m 0,2 km/h (0 Bft) S 180 5 min 0,2 UV-I 10,1 C 17,7 C 0,0 km/h (0 Bft)
02.04.2011 08:55 12,9 C 12,3 C 12,4 C 17,8 C 17,8 C 4,9 C 84 % 87 % 100 % 1019,3 hPa 0,0 l/m 0,0 km/h (0 Bft) O-SO 112 5 min 0,2 UV-I 10,3 C 17,8 C 0,0 km/h (0 Bft)
02.04.2011 09:00 13,0 C 12,3 C 12,7 C 17,9 C 17,9 C 4,9 C 83 % 85 % 100 % 1019,3 hPa 0,0 l/m 0,8 km/h (0 Bft) W-SW 247 5 min 0,2 UV-I 10,2 C 17,9 C 3,5 km/h (1 Bft)
02.04.2011 09:09 13,1 C 12,3 C 12,8 C 18,2 C 18,2 C 5,1 C 82 % 84 % 100 % 1019,3 hPa 0,0 l/m 1,4 km/h (1 Bft) N 0 9 min 0,3 UV-I 10,1 C 18,2 C 3,2 km/h (1 Bft)
02.04.2011 09:15 13,3 C 12,2 C 13,3 C 18,5 C 18,5 C 5,2 C 82 % 84 % 100 % 1019,1 hPa 0,0 l/m 1,3 km/h (1 Bft) SW 225 6 min 0,4 UV-I 10,3 C 18,5 C 2,3 km/h (1 Bft)
02.04.2011 09:20 13,5 C 12,2 C 13,8 C 18,9 C 18,9 C 5,4 C 82 % 83 % 100 % 1019,1 hPa 0,0 l/m 0,8 km/h (0 Bft) S-SW 202 5 min 0,4 UV-I 10,5 C 18,9 C 1,9 km/h (1 Bft)
02.04.2011 09:25 13,9 C 12,2 C 14,0 C 18,7 C 18,7 C 4,8 C 82 % 82 % 100 % 1019,1 hPa 0,0 l/m 1,1 km/h (1 Bft) S 180 5 min 0,5 UV-I 10,9 C 18,7 C 2,3 km/h (1 Bft)
02.04.2011 09:30 13,9 C 12,2 C 14,0 C 18,5 C 18,5 C 4,6 C 82 % 82 % 100 % 1019,1 hPa 0,0 l/m 1,3 km/h (1 Bft) S-SW 202 5 min 0,5 UV-I 10,9 C 18,5 C 2,1 km/h (1 Bft)
02.04.2011 09:35 14,0 C 12,2 C 14,3 C 18,8 C 18,8 C 4,8 C 81 % 81 % 100 % 1019,0 hPa 0,0 l/m 1,3 km/h (1 Bft) S 180 5 min 0,5 UV-I 10,8 C 18,8 C 4,2 km/h (1 Bft)
02.04.2011 09:40 14,2 C 12,2 C 14,3 C 18,9 C 18,9 C 4,7 C 81 % 81 % 100 % 1019,0 hPa 0,0 l/m 1,6 km/h (1 Bft) SW 225 5 min 0,5 UV-I 11,0 C 18,9 C 0,0 km/h (0 Bft)
02.04.2011 09:45 14,5 C 12,2 C 14,4 C 18,7 C 18,7 C 4,2 C 80 % 81 % 100 % 1019,0 hPa 0,0 l/m 1,8 km/h (1 Bft) W-SW 247 5 min 0,7 UV-I 11,1 C 18,7 C 0,0 km/h (0 Bft)
02.04.2011 09:50 14,5 C 12,2 C 14,4 C 18,9 C 18,9 C 4,4 C 80 % 80 % 100 % 1019,0 hPa 0,0 l/m 1,6 km/h (1 Bft) S-SW 202 5 min 0,7 UV-I 11,1 C 18,9 C 1,8 km/h (1 Bft)
02.04.2011 09:55 14,8 C 12,3 C 14,7 C 18,7 C 18,7 C 3,9 C 79 % 80 % 100 % 1019,1 hPa 0,0 l/m 1,3 km/h (1 Bft) SW 225 5 min 0,7 UV-I 11,2 C 18,7 C 2,3 km/h (1 Bft)
02.04.2011 10:00 14,8 C 12,2 C 14,8 C 18,7 C 18,7 C 3,9 C 79 % 80 % 100 % 1019,1 hPa 0,0 l/m 1,4 km/h (1 Bft) SW 225 5 min 0,7 UV-I 11,2 C 18,7 C 2,3 km/h (1 Bft)
02.04.2011 10:10 14,9 C 12,2 C 14,7 C 18,8 C 18,8 C 3,9 C 79 % 80 % 100 % 1019,1 hPa 0,0 l/m 1,6 km/h (1 Bft) N 0 10 min 0,7 UV-I 11,3 C 18,8 C 6,4 km/h (2 Bft)
02.04.2011 10:15 15,2 C 12,3 C 15,1 C 19,0 C 19,0 C 3,8 C 78 % 80 % 100 % 1018,9 hPa 0,0 l/m 1,0 km/h (0 Bft) S 180 5 min 0,8 UV-I 11,4 C 19,0 C 3,9 km/h (1 Bft)
02.04.2011 10:20 15,3 C 12,3 C 15,2 C 19,0 C 19,0 C 3,7 C 78 % 79 % 97 % 1018,9 hPa 0,0 l/m 1,8 km/h (1 Bft) O 90 5 min 0,8 UV-I 11,5 C 19,0 C 0,0 km/h (0 Bft)
02.04.2011 10:25 15,7 C 12,3 C 15,4 C 20,2 C 20,2 C 4,5 C 77 % 78 % 100 % 1018,9 hPa 0,0 l/m 2,1 km/h (1 Bft) S-SW 202 5 min 1,0 UV-I 11,7 C 20,2 C 0,0 km/h (0 Bft)
02.04.2011 10:30 15,9 C 12,3 C 15,5 C 20,9 C 20,9 C 5,0 C 76 % 78 % 100 % 1018,9 hPa 0,0 l/m 1,6 km/h (1 Bft) S 180 5 min 1,0 UV-I 11,7 C 20,9 C 3,1 km/h (1 Bft)
02.04.2011 10:35 16,0 C 12,3 C 15,5 C 21,2 C 21,2 C 5,2 C 76 % 78 % 100 % 1018,9 hPa 0,0 l/m 2,4 km/h (1 Bft) SW 225 5 min 1,0 UV-I 11,8 C 21,2 C 2,9 km/h (1 Bft)
02.04.2011 10:40 16,2 C 12,3 C 15,8 C 21,0 C 21,0 C 4,8 C 75 % 77 % 100 % 1018,9 hPa 0,0 l/m 3,2 km/h (1 Bft) S-SW 202 5 min 1,0 UV-I 11,8 C 21,0 C 4,5 km/h (1 Bft)
02.04.2011 10:45 16,5 C 12,4 C 15,9 C 21,2 C 21,2 C 4,7 C 75 % 76 % 100 % 1018,9 hPa 0,0 l/m 3,1 km/h (1 Bft) SO 135 5 min 1,0 UV-I 12,1 C 21,2 C 5,8 km/h (2 Bft)
02.04.2011 10:50 16,6 C 12,3 C 16,0 C 21,3 C 21,3 C 4,7 C 74 % 76 % 100 % 1018,9 hPa 0,0 l/m 2,4 km/h (1 Bft) S 180 5 min 1,0 UV-I 11,9 C 21,3 C 3,1 km/h (1 Bft)
02.04.2011 10:55 16,9 C 12,4 C 16,2 C 20,7 C 20,7 C 3,8 C 73 % 76 % 100 % 1018,6 hPa 0,0 l/m 2,4 km/h (1 Bft) S 180 5 min 1,2 UV-I 12,0 C 20,7 C 6,6 km/h (2 Bft)
02.04.2011 11:00 17,1 C 12,4 C 16,2 C 20,5 C 20,5 C 3,4 C 72 % 74 % 89 % 1018,6 hPa 0,0 l/m 2,7 km/h (1 Bft) S 180 5 min 1,2 UV-I 12,0 C 20,5 C 2,3 km/h (1 Bft)
02.04.2011 11:10 17,4 C 12,4 C 16,7 C 20,4 C 20,4 C 3,0 C 70 % 73 % 79 % 1018,6 hPa 0,0 l/m 2,4 km/h (1 Bft) N 0 0 min 1,3 UV-I 11,9 C 20,4 C 3,4 km/h (1 Bft)
02.04.2011 11:15 17,6 C 12,5 C 16,8 C 20,8 C 20,8 C 3,2 C 70 % 72 % 84 % 1018,7 hPa 0,0 l/m 2,3 km/h (1 Bft) O-SO 112 0 min 1,2 UV-I 12,1 C 20,8 C 2,6 km/h (1 Bft)
02.04.2011 11:20 17,6 C 12,4 C 16,9 C 21,2 C 21,2 C 3,6 C 69 % 72 % 95 % 1018,7 hPa 0,0 l/m 1,9 km/h (1 Bft) W-SW 247 5 min 1,2 UV-I 11,8 C 21,2 C 2,7 km/h (1 Bft)
02.04.2011 11:25 17,9 C 12,6 C 17,1 C 21,2 C 21,2 C 3,3 C 69 % 71 % 87 % 1018,7 hPa 0,0 l/m 2,4 km/h (1 Bft) N-NO 22 5 min 1,2 UV-I 12,1 C 21,2 C 9,5 km/h (2 Bft)
02.04.2011 11:30 17,9 C 12,6 C 17,1 C 21,1 C 21,1 C 3,2 C 69 % 72 % 84 % 1018,7 hPa 0,0 l/m 3,5 km/h (1 Bft) SW 225 0 min 1,2 UV-I 12,1 C 21,1 C 4,3 km/h (1 Bft)
02.04.2011 11:35 18,2 C 12,6 C 17,3 C 21,0 C 21,0 C 2,8 C 68 % 71 % 74 % 1018,8 hPa 0,0 l/m 3,2 km/h (1 Bft) S-SO 157 0 min 1,2 UV-I 12,2 C 21,0 C 4,8 km/h (1 Bft)
02.04.2011 11:40 18,3 C 12,6 C 17,5 C 21,0 C 21,0 C 2,7 C 67 % 69 % 71 % 1018,8 hPa 0,0 l/m 2,7 km/h (1 Bft) SW 225 0 min 1,2 UV-I 12,1 C 21,0 C 5,8 km/h (2 Bft)
02.04.2011 11:45 18,3 C 12,6 C 17,7 C 20,9 C 20,9 C 2,6 C 67 % 69 % 68 % 1018,8 hPa 0,0 l/m 4,0 km/h (1 Bft) SW 225 0 min 1,3 UV-I 12,1 C 20,9 C 11,7 km/h (2 Bft)
02.04.2011 11:50 18,4 C 12,6 C 17,8 C 20,6 C 20,6 C 2,2 C 66 % 68 % 58 % 1018,8 hPa 0,0 l/m 5,1 km/h (1 Bft) S-SO 157 0 min 1,3 UV-I 11,9 C 20,6 C 4,5 km/h (1 Bft)
02.04.2011 11:55 18,6 C 12,7 C 18,0 C 20,8 C 20,8 C 2,2 C 65 % 66 % 58 % 1018,4 hPa 0,0 l/m 4,5 km/h (1 Bft) SW 225 0 min 1,4 UV-I 11,9 C 20,8 C 3,1 km/h (1 Bft)
02.04.2011 12:00 18,7 C 12,7 C 18,1 C 21,0 C 21,0 C 2,3 C 64 % 66 % 61 % 1018,4 hPa 0,0 l/m 2,6 km/h (1 Bft) S 180 0 min 1,4 UV-I 11,7 C 21,0 C 4,5 km/h (1 Bft)
02.04.2011 12:09 19,0 C 12,9 C 18,4 C 22,1 C 22,1 C 3,1 C 64 % 67 % 82 % 1018,4 hPa 0,0 l/m 2,6 km/h (1 Bft) N 0 0 min 1,3 UV-I 12,0 C 22,1 C 3,1 km/h (1 Bft)
02.04.2011 12:15 19,2 C 12,8 C 18,7 C 23,4 C 23,4 C 4,2 C 62 % 65 % 100 % 1017,9 hPa 0,0 l/m 2,6 km/h (1 Bft) S-SO 157 6 min 1,5 UV-I 11,7 C 23,4 C 4,2 km/h (1 Bft)
02.04.2011 12:20 19,3 C 12,9 C 18,9 C 24,3 C 24,3 C 5,0 C 63 % 65 % 100 % 1017,9 hPa 0,0 l/m 2,6 km/h (1 Bft) SO 135 5 min 1,5 UV-I 12,1 C 24,3 C 4,7 km/h (1 Bft)
02.04.2011 12:25 19,4 C 12,9 C 19,2 C 25,2 C 25,2 C 5,8 C 62 % 63 % 100 % 1017,9 hPa 0,0 l/m 3,4 km/h (1 Bft) SW 225 5 min 1,8 UV-I 11,9 C 25,2 C 6,6 km/h (2 Bft)
02.04.2011 12:30 19,4 C 13,0 C 19,6 C 25,5 C 25,5 C 6,1 C 61 % 62 % 100 % 1017,9 hPa 0,0 l/m 3,4 km/h (1 Bft) SW 225 5 min 1,8 UV-I 11,7 C 25,5 C 3,7 km/h (1 Bft)
02.04.2011 12:35 19,6 C 13,0 C 19,7 C 26,2 C 26,2 C 6,6 C 60 % 59 % 100 % 1017,8 hPa 0,0 l/m 3,2 km/h (1 Bft) S-SO 157 5 min 1,9 UV-I 11,6 C 26,2 C 8,0 km/h (2 Bft)
02.04.2011 12:40 19,7 C 13,0 C 19,6 C 25,8 C 25,8 C 6,1 C 59 % 59 % 100 % 1017,8 hPa 0,0 l/m 4,0 km/h (1 Bft) W-SW 247 5 min 1,9 UV-I 11,5 C 25,8 C 4,7 km/h (1 Bft)
02.04.2011 12:45 19,8 C 13,1 C 19,6 C 25,9 C 25,9 C 6,1 C 58 % 59 % 100 % 1017,8 hPa 0,0 l/m 3,9 km/h (1 Bft) SO 135 5 min 2,6 UV-I 11,3 C 25,9 C 3,4 km/h (1 Bft)
02.04.2011 12:50 19,9 C 13,1 C 19,7 C 25,9 C 25,9 C 6,0 C 59 % 60 % 100 % 1017,8 hPa 0,0 l/m 3,5 km/h (1 Bft) N 360 5 min 2,6 UV-I 11,6 C 25,9 C 0,0 km/h (0 Bft)
02.04.2011 12:55 19,9 C 13,3 C 19,7 C 25,5 C 25,5 C 5,6 C 58 % 59 % 100 % 1017,6 hPa 0,0 l/m 3,2 km/h (1 Bft) O-NO 67 5 min 2,4 UV-I 11,4 C 25,5 C 1,6 km/h (1 Bft)
02.04.2011 13:00 20,0 C 13,3 C 19,7 C 25,4 C 25,4 C 5,4 C 59 % 59 % 100 % 1017,6 hPa 0,0 l/m 3,7 km/h (1 Bft) SO 135 5 min 2,4 UV-I 11,7 C 25,4 C 7,4 km/h (2 Bft)
02.04.2011 13:09 20,1 C 13,4 C 20,1 C 25,3 C 25,3 C 5,2 C 57 % 57 % 100 % 1017,6 hPa 0,0 l/m 5,8 km/h (2 Bft) N 0 9 min 2,7 UV-I 11,3 C 25,3 C 15,3 km/h (3 Bft)
02.04.2011 13:15 20,1 C 13,5 C 20,1 C 24,9 C 24,9 C 4,8 C 56 % 57 % 100 % 1017,4 hPa 0,0 l/m 4,0 km/h (1 Bft) W-SW 247 6 min 2,5 UV-I 11,0 C 24,9 C 7,1 km/h (2 Bft)
02.04.2011 13:20 20,1 C 13,5 C 20,3 C 25,1 C 25,1 C 5,0 C 57 % 57 % 100 % 1017,4 hPa 0,0 l/m 4,3 km/h (1 Bft) SW 225 5 min 2,5 UV-I 11,3 C 25,1 C 11,7 km/h (2 Bft)
02.04.2011 13:25 20,1 C 13,5 C 20,8 C 25,4 C 25,4 C 5,3 C 57 % 56 % 100 % 1017,4 hPa 0,0 l/m 5,1 km/h (1 Bft) S 180 5 min 2,7 UV-I 11,3 C 25,4 C 7,1 km/h (2 Bft)
02.04.2011 13:30 20,2 C 13,6 C 21,1 C 25,4 C 25,4 C 5,2 C 57 % 55 % 100 % 1017,4 hPa 0,0 l/m 5,1 km/h (1 Bft) W 270 5 min 2,7 UV-I 11,4 C 25,4 C 2,3 km/h (1 Bft)
02.04.2011 13:35 20,3 C 13,6 C 21,2 C 26,0 C 26,0 C 5,7 C 57 % 56 % 100 % 1017,2 hPa 0,0 l/m 3,9 km/h (1 Bft) O-SO 112 5 min 2,6 UV-I 11,5 C 26,0 C 5,8 km/h (2 Bft)
02.04.2011 13:40 20,3 C 13,7 C 21,3 C 26,2 C 26,2 C 5,9 C 57 % 54 % 100 % 1017,2 hPa 0,0 l/m 2,7 km/h (1 Bft) SO 135 5 min 2,6 UV-I 11,5 C 26,2 C 6,1 km/h (2 Bft)
02.04.2011 13:45 20,3 C 13,7 C 21,1 C 24,8 C 24,8 C 4,5 C 58 % 57 % 100 % 1017,2 hPa 0,0 l/m 3,1 km/h (1 Bft) SO 135 5 min 2,3 UV-I 11,8 C 24,8 C 4,7 km/h (1 Bft)
02.04.2011 13:50 20,1 C 13,7 C 21,1 C 24,8 C 24,8 C 4,7 C 57 % 55 % 100 % 1017,2 hPa 0,0 l/m 4,2 km/h (1 Bft) S 180 5 min 2,3 UV-I 11,3 C 24,8 C 6,1 km/h (2 Bft)
02.04.2011 13:55 20,3 C 13,8 C 21,7 C 24,4 C 24,4 C 4,1 C 57 % 55 % 100 % 1016,9 hPa 0,0 l/m 5,1 km/h (1 Bft) S 180 5 min 2,5 UV-I 11,5 C 24,4 C 6,4 km/h (2 Bft)
02.04.2011 14:00 20,3 C 13,8 C 22,3 C 24,7 C 24,7 C 4,4 C 57 % 53 % 100 % 1016,9 hPa 0,0 l/m 5,5 km/h (1 Bft) SW 225 5 min 2,5 UV-I 11,5 C 24,7 C 8,0 km/h (2 Bft)
02.04.2011 14:09 20,6 C 13,8 C 23,3 C 25,5 C 25,5 C 4,9 C 56 % 50 % 100 % 1016,9 hPa 0,0 l/m 6,3 km/h (2 Bft) N 0 9 min 2,5 UV-I 11,5 C 25,5 C 10,6 km/h (2 Bft)
02.04.2011 14:15 20,7 C 13,9 C 23,7 C 25,7 C 25,7 C 5,0 C 56 % 48 % 100 % 1016,9 hPa 0,0 l/m 6,4 km/h (2 Bft) SW 225 6 min 2,4 UV-I 11,6 C 25,7 C 9,0 km/h (2 Bft)
02.04.2011 14:20 20,6 C 13,9 C 23,6 C 25,4 C 25,4 C 4,8 C 55 % 49 % 100 % 1016,9 hPa 0,0 l/m 5,1 km/h (1 Bft) W-SW 247 5 min 2,4 UV-I 11,2 C 25,4 C 2,6 km/h (1 Bft)
02.04.2011 14:25 20,5 C 14,0 C 24,3 C 24,7 C 24,7 C 4,2 C 55 % 48 % 100 % 1016,9 hPa 0,0 l/m 4,0 km/h (1 Bft) SW 225 5 min 2,1 UV-I 11,1 C 24,7 C 3,9 km/h (1 Bft)
02.04.2011 14:30 20,5 C 14,0 C 25,5 C 25,2 C 25,2 C 4,7 C 55 % 47 % 100 % 1016,9 hPa 0,0 l/m 3,9 km/h (1 Bft) SW 225 5 min 2,1 UV-I 11,1 C 25,2 C 3,7 km/h (1 Bft)
02.04.2011 14:35 20,5 C 14,0 C 25,9 C 25,9 C 25,9 C 5,4 C 55 % 43 % 100 % 1016,4 hPa 0,0 l/m 3,2 km/h (1 Bft) N-NW 337 5 min 2,2 UV-I 11,1 C 25,9 C 1,6 km/h (1 Bft)
02.04.2011 14:40 20,8 C 14,1 C 26,2 C 26,5 C 26,5 C 5,7 C 55 % 46 % 100 % 1016,4 hPa 0,0 l/m 2,3 km/h (1 Bft) S 180 5 min 2,2 UV-I 11,4 C 26,5 C 7,6 km/h (2 Bft)
02.04.2011 14:45 20,7 C 14,1 C 25,2 C 26,3 C 26,3 C 5,6 C 54 % 42 % 100 % 1016,4 hPa 0,0 l/m 2,1 km/h (1 Bft) O-NO 67 5 min 1,6 UV-I 11,1 C 26,3 C 0,0 km/h (0 Bft)
02.04.2011 14:50 20,7 C 14,1 C 24,9 C 25,4 C 25,4 C 4,7 C 54 % 47 % 100 % 1016,4 hPa 0,0 l/m 2,4 km/h (1 Bft) S 180 5 min 1,6 UV-I 11,1 C 25,4 C 3,1 km/h (1 Bft)
02.04.2011 14:55 20,9 C 14,2 C 26,9 C 26,5 C 26,5 C 5,6 C 54 % 43 % 100 % 1016,3 hPa 0,0 l/m 1,4 km/h (1 Bft) S-SW 202 5 min 2,1 UV-I 11,2 C 26,5 C 3,5 km/h (1 Bft)
02.04.2011 15:00 21,2 C 14,3 C 27,4 C 27,4 C 27,4 C 6,2 C 54 % 40 % 100 % 1016,3 hPa 0,0 l/m 2,6 km/h (1 Bft) NO 45 5 min 2,1 UV-I 11,5 C 27,4 C 1,9 km/h (1 Bft)
02.04.2011 15:09 21,5 C 14,4 C 27,4 C 27,3 C 27,3 C 5,8 C 52 % 40 % 100 % 1016,3 hPa 0,0 l/m 4,8 km/h (1 Bft) N 0 9 min 2,0 UV-I 11,2 C 27,3 C 4,3 km/h (1 Bft)
02.04.2011 15:15 21,7 C 14,4 C 27,7 C 27,1 C 27,1 C 5,4 C 52 % 39 % 100 % 1016,3 hPa 0,0 l/m 5,3 km/h (1 Bft) S 180 6 min 1,9 UV-I 11,4 C 27,1 C 3,4 km/h (1 Bft)
02.04.2011 15:20 21,7 C 14,4 C 27,9 C 27,3 C 27,3 C 5,6 C 52 % 41 % 100 % 1016,3 hPa 0,0 l/m 3,7 km/h (1 Bft) SO 135 5 min 1,9 UV-I 11,4 C 27,3 C 2,4 km/h (1 Bft)
02.04.2011 15:25 21,8 C 14,5 C 28,4 C 28,0 C 28,0 C 6,2 C 51 % 39 % 100 % 1016,3 hPa 0,0 l/m 2,6 km/h (1 Bft) S 180 5 min 1,7 UV-I 11,2 C 28,0 C 4,2 km/h (1 Bft)
02.04.2011 15:30 21,7 C 14,5 C 27,9 C 27,8 C 27,8 C 6,1 C 51 % 38 % 100 % 1016,3 hPa 0,0 l/m 3,7 km/h (1 Bft) W-SW 247 5 min 1,7 UV-I 11,1 C 27,8 C 10,6 km/h (2 Bft)
02.04.2011 15:35 21,9 C 14,6 C 27,6 C 27,0 C 27,0 C 5,1 C 51 % 38 % 100 % 1016,1 hPa 0,0 l/m 6,3 km/h (2 Bft) S 180 5 min 1,5 UV-I 11,3 C 27,0 C 5,8 km/h (2 Bft)
02.04.2011 15:40 21,9 C 14,6 C 27,7 C 27,0 C 27,0 C 5,1 C 50 % 39 % 100 % 1016,1 hPa 0,0 l/m 5,5 km/h (1 Bft) O-NO 67 5 min 1,5 UV-I 11,0 C 27,0 C 3,4 km/h (1 Bft)
02.04.2011 15:45 22,0 C 14,7 C 27,5 C 27,4 C 27,4 C 5,4 C 51 % 39 % 100 % 1016,1 hPa 0,0 l/m 3,2 km/h (1 Bft) S-SW 202 5 min 1,4 UV-I 11,4 C 27,4 C 3,2 km/h (1 Bft)
02.04.2011 15:50 22,0 C 14,7 C 27,8 C 27,7 C 27,7 C 5,7 C 50 % 38 % 100 % 1016,1 hPa 0,0 l/m 3,1 km/h (1 Bft) N-NO 22 5 min 1,4 UV-I 11,1 C 27,7 C 3,7 km/h (1 Bft)
02.04.2011 15:55 22,1 C 14,7 C 27,6 C 27,6 C 27,6 C 5,5 C 49 % 38 % 100 % 1015,8 hPa 0,0 l/m 4,7 km/h (1 Bft) SW 225 5 min 1,3 UV-I 10,9 C 27,6 C 10,8 km/h (2 Bft)
02.04.2011 16:00 22,3 C 14,8 C 27,5 C 27,0 C 27,0 C 4,7 C 49 % 38 % 100 % 1015,8 hPa 0,0 l/m 6,1 km/h (2 Bft) W-SW 247 5 min 1,3 UV-I 11,1 C 27,0 C 6,9 km/h (2 Bft)
02.04.2011 16:09 22,1 C 14,8 C 26,9 C 26,0 C 26,0 C 3,9 C 49 % 39 % 100 % 1015,8 hPa 0,0 l/m 7,6 km/h (2 Bft) N 0 9 min 1,1 UV-I 10,9 C 26,0 C 7,7 km/h (2 Bft)
02.04.2011 16:15 22,1 C 14,9 C 27,1 C 26,3 C 26,3 C 4,2 C 49 % 41 % 100 % 1015,4 hPa 0,0 l/m 5,1 km/h (1 Bft) W-SW 247 6 min 1,0 UV-I 10,9 C 26,3 C 2,7 km/h (1 Bft)
02.04.2011 16:20 22,3 C 14,9 C 27,0 C 27,0 C 27,0 C 4,7 C 49 % 39 % 100 % 1015,4 hPa 0,0 l/m 2,7 km/h (1 Bft) O 90 5 min 1,0 UV-I 11,1 C 27,0 C 3,7 km/h (1 Bft)
02.04.2011 16:25 22,1 C 15,0 C 26,2 C 26,8 C 26,8 C 4,7 C 49 % 40 % 100 % 1015,4 hPa 0,0 l/m 2,4 km/h (1 Bft) W 270 5 min 0,9 UV-I 10,9 C 26,8 C 3,2 km/h (1 Bft)
02.04.2011 16:30 22,1 C 15,0 C 26,2 C 26,7 C 26,7 C 4,6 C 49 % 40 % 100 % 1015,4 hPa 0,0 l/m 2,7 km/h (1 Bft) S 180 5 min 0,9 UV-I 10,9 C 26,7 C 0,0 km/h (0 Bft)
02.04.2011 16:35 22,0 C 15,0 C 26,1 C 26,7 C 26,7 C 4,7 C 50 % 40 % 100 % 1015,1 hPa 0,0 l/m 2,7 km/h (1 Bft) O-SO 112 5 min 0,8 UV-I 11,1 C 26,7 C 1,8 km/h (1 Bft)
02.04.2011 16:40 22,0 C 15,0 C 25,5 C 25,9 C 25,9 C 3,9 C 50 % 42 % 100 % 1015,1 hPa 0,0 l/m 2,6 km/h (1 Bft) W-SW 247 5 min 0,8 UV-I 11,1 C 25,9 C 3,2 km/h (1 Bft)
02.04.2011 16:45 22,1 C 15,1 C 25,5 C 25,8 C 25,8 C 3,7 C 49 % 41 % 97 % 1015,1 hPa 0,0 l/m 3,2 km/h (1 Bft) W-SW 247 5 min 0,7 UV-I 10,9 C 25,8 C 4,5 km/h (1 Bft)
02.04.2011 16:50 22,0 C 15,1 C 25,5 C 25,8 C 25,8 C 3,8 C 49 % 43 % 100 % 1015,1 hPa 0,0 l/m 3,7 km/h (1 Bft) SW 225 5 min 0,7 UV-I 10,8 C 25,8 C 4,2 km/h (1 Bft)
02.04.2011 16:55 22,2 C 15,1 C 25,8 C 26,1 C 26,1 C 3,9 C 49 % 44 % 100 % 1015,1 hPa 0,0 l/m 3,1 km/h (1 Bft) SW 225 5 min 0,6 UV-I 11,0 C 26,1 C 0,0 km/h (0 Bft)
02.04.2011 17:00 22,2 C 15,1 C 25,6 C 26,7 C 26,7 C 4,5 C 49 % 42 % 100 % 1015,1 hPa 0,0 l/m 2,4 km/h (1 Bft) N-NO 22 5 min 0,6 UV-I 11,0 C 26,7 C 0,0 km/h (0 Bft)
02.04.2011 17:09 22,5 C 15,1 C 25,2 C 27,4 C 27,4 C 4,9 C 47 % 41 % 100 % 1015,1 hPa 0,0 l/m 1,8 km/h (1 Bft) N 0 9 min 0,5 UV-I 10,6 C 27,4 C 2,9 km/h (1 Bft)
02.04.2011 17:15 22,6 C 15,1 C 25,1 C 27,3 C 27,3 C 4,7 C 47 % 41 % 100 % 1014,8 hPa 0,0 l/m 3,1 km/h (1 Bft) S-SW 202 6 min 0,4 UV-I 10,7 C 27,3 C 9,0 km/h (2 Bft)
02.04.2011 17:20 22,5 C 15,2 C 25,1 C 26,9 C 26,9 C 4,4 C 47 % 42 % 100 % 1014,8 hPa 0,0 l/m 3,5 km/h (1 Bft) W 270 5 min 0,4 UV-I 10,6 C 26,9 C 1,8 km/h (1 Bft)
02.04.2011 17:25 22,6 C 15,2 C 25,1 C 27,0 C 27,0 C 4,4 C 47 % 41 % 100 % 1014,8 hPa 0,0 l/m 2,7 km/h (1 Bft) S-SO 157 5 min 0,3 UV-I 10,7 C 27,0 C 2,6 km/h (1 Bft)
02.04.2011 17:30 22,7 C 15,2 C 25,1 C 27,0 C 27,0 C 4,3 C 47 % 42 % 100 % 1014,8 hPa 0,0 l/m 1,4 km/h (1 Bft) O-NO 67 5 min 0,3 UV-I 10,8 C 27,0 C 0,0 km/h (0 Bft)
02.04.2011 17:35 22,6 C 15,2 C 24,9 C 27,1 C 27,1 C 4,5 C 47 % 42 % 100 % 1014,6 hPa 0,0 l/m 1,8 km/h (1 Bft) N-NO 22 5 min 0,3 UV-I 10,7 C 27,1 C 0,0 km/h (0 Bft)
02.04.2011 17:40 22,7 C 15,2 C 24,7 C 27,1 C 27,1 C 4,4 C 47 % 41 % 100 % 1014,6 hPa 0,0 l/m 2,1 km/h (1 Bft) O-SO 112 5 min 0,3 UV-I 10,8 C 27,1 C 2,6 km/h (1 Bft)
02.04.2011 17:45 22,6 C 15,2 C 24,3 C 26,7 C 26,7 C 4,1 C 47 % 43 % 100 % 1014,6 hPa 0,0 l/m 2,7 km/h (1 Bft) SW 225 5 min 0,2 UV-I 10,7 C 26,7 C 4,0 km/h (1 Bft)
02.04.2011 17:50 22,6 C 15,2 C 24,3 C 26,5 C 26,5 C 3,9 C 46 % 42 % 100 % 1014,6 hPa 0,0 l/m 2,7 km/h (1 Bft) O-NO 67 5 min 0,2 UV-I 10,4 C 26,5 C 1,6 km/h (1 Bft)
02.04.2011 17:55 22,7 C 15,2 C 24,2 C 26,3 C 26,3 C 3,6 C 47 % 43 % 95 % 1014,4 hPa 0,0 l/m 3,1 km/h (1 Bft) S-SW 202 5 min 0,1 UV-I 10,8 C 26,3 C 1,9 km/h (1 Bft)
02.04.2011 18:00 22,6 C 15,2 C 24,4 C 25,9 C 25,9 C 3,3 C 47 % 43 % 87 % 1014,4 hPa 0,0 l/m 3,4 km/h (1 Bft) SW 225 5 min 0,1 UV-I 10,7 C 25,9 C 3,9 km/h (1 Bft)
02.04.2011 18:09 22,4 C 15,2 C 24,1 C 25,4 C 25,4 C 3,0 C 47 % 44 % 79 % 1014,4 hPa 0,0 l/m 2,9 km/h (1 Bft) N 0 9 min 0,1 UV-I 10,5 C 25,4 C 2,6 km/h (1 Bft)
02.04.2011 18:15 22,5 C 15,2 C 23,8 C 25,6 C 25,6 C 3,1 C 47 % 44 % 82 % 1014,1 hPa 0,0 l/m 1,1 km/h (1 Bft) SW 225 6 min 0,1 UV-I 10,6 C 25,6 C 0,0 km/h (0 Bft)
02.04.2011 18:20 22,3 C 15,2 C 23,7 C 25,8 C 25,8 C 3,5 C 47 % 43 % 92 % 1014,1 hPa 0,0 l/m 0,6 km/h (0 Bft) NO 45 5 min 0,1 UV-I 10,4 C 25,8 C 0,0 km/h (0 Bft)
02.04.2011 18:25 22,3 C 15,2 C 23,2 C 25,9 C 25,9 C 3,6 C 47 % 44 % 95 % 1014,1 hPa 0,0 l/m 0,5 km/h (0 Bft) N-NO 22 5 min 0,0 UV-I 10,4 C 25,9 C 2,1 km/h (1 Bft)
02.04.2011 18:30 22,2 C 15,2 C 22,8 C 25,6 C 25,6 C 3,4 C 47 % 45 % 89 % 1014,1 hPa 0,0 l/m 0,8 km/h (0 Bft) O 90 5 min 0,0 UV-I 10,3 C 25,6 C 0,0 km/h (0 Bft)
02.04.2011 18:35 22,1 C 15,2 C 22,5 C 25,6 C 25,6 C 3,5 C 48 % 46 % 92 % 1014,4 hPa 0,0 l/m 0,5 km/h (0 Bft) SO 135 5 min 0,0 UV-I 10,6 C 25,6 C 1,9 km/h (1 Bft)
02.04.2011 18:40 22,0 C 15,2 C 22,4 C 25,4 C 25,4 C 3,4 C 48 % 48 % 89 % 1014,4 hPa 0,0 l/m 1,0 km/h (0 Bft) SW 225 5 min 0,0 UV-I 10,5 C 25,4 C 3,4 km/h (1 Bft)
02.04.2011 18:45 21,9 C 15,2 C 22,3 C 24,7 C 24,7 C 2,8 C 48 % 48 % 74 % 1014,4 hPa 0,0 l/m 1,9 km/h (1 Bft) W-SW 247 5 min 0,0 UV-I 10,4 C 24,7 C 0,0 km/h (0 Bft)
02.04.2011 18:50 21,8 C 15,3 C 22,1 C 24,6 C 24,6 C 2,8 C 48 % 48 % 74 % 1014,4 hPa 0,0 l/m 1,3 km/h (1 Bft) W-SW 247 5 min 0,0 UV-I 10,3 C 24,6 C 2,3 km/h (1 Bft)
02.04.2011 18:55 21,7 C 15,3 C 22,0 C 24,2 C 24,2 C 2,5 C 48 % 48 % 66 % 1014,2 hPa 0,0 l/m 1,3 km/h (1 Bft) NW 315 5 min 0,0 UV-I 10,2 C 24,2 C 2,6 km/h (1 Bft)
02.04.2011 19:00 21,7 C 15,3 C 21,7 C 23,9 C 23,9 C 2,2 C 49 % 49 % 58 % 1014,2 hPa 0,0 l/m 1,4 km/h (1 Bft) N-NO 22 5 min 0,0 UV-I 10,5 C 23,9 C 2,4 km/h (1 Bft)
02.04.2011 19:09 21,2 C 15,2 C 21,1 C 23,0 C 23,0 C 1,8 C 50 % 50 % 47 % 1014,2 hPa 0,0 l/m 1,1 km/h (1 Bft) N 0 9 min 0,0 UV-I 10,4 C 23,0 C 0,0 km/h (0 Bft)
02.04.2011 19:15 21,1 C 15,2 C 20,8 C 22,3 C 22,3 C 1,2 C 52 % 52 % 32 % 1014,2 hPa 0,0 l/m 0,5 km/h (0 Bft) NO 45 6 min 0,0 UV-I 10,9 C 22,3 C 0,0 km/h (0 Bft)
02.04.2011 19:20 20,8 C 15,2 C 20,6 C 22,0 C 22,0 C 1,2 C 52 % 52 % 32 % 1014,2 hPa 0,0 l/m 0,2 km/h (0 Bft) NO 45 5 min 0,0 UV-I 10,6 C 22,0 C 0,0 km/h (0 Bft)
02.04.2011 19:25 20,5 C 15,2 C 20,1 C 21,2 C 21,2 C 0,7 C 52 % 53 % 18 % 1014,2 hPa 0,0 l/m 0,0 km/h (0 Bft) N-NO 22 5 min 0,0 UV-I 10,3 C 21,2 C 0,0 km/h (0 Bft)
02.04.2011 19:30 20,4 C 15,2 C 20,0 C 20,7 C 20,7 C 0,3 C 53 % 53 % 8 % 1014,2 hPa 0,0 l/m 0,0 km/h (0 Bft) N 360 5 min 0,0 UV-I 10,5 C 20,7 C 0,0 km/h (0 Bft)
02.04.2011 19:35 20,1 C 15,3 C 19,5 C 20,0 C 19,7 C 0,0 C 53 % 56 % 0 % 1014,1 hPa 0,0 l/m 0,0 km/h (0 Bft) N 360 0 min 0,0 UV-I 10,2 C 19,7 C 0,0 km/h (0 Bft)
02.04.2011 19:40 19,9 C 15,3 C 19,2 C 19,7 C 19,2 C 0,0 C 54 % 56 % 0 % 1014,1 hPa 0,0 l/m 0,0 km/h (0 Bft) O-NO 67 0 min 0,0 UV-I 10,3 C 19,2 C 0,0 km/h (0 Bft)
02.04.2011 19:45 19,5 C 15,3 C 18,7 C 19,1 C 18,3 C 0,0 C 57 % 59 % 0 % 1014,1 hPa 0,0 l/m 0,2 km/h (0 Bft) O-NO 67 0 min 0,0 UV-I 10,8 C 18,3 C 1,9 km/h (1 Bft)
02.04.2011 19:50 19,2 C 15,3 C 18,4 C 18,8 C 17,9 C 0,0 C 58 % 60 % 0 % 1014,1 hPa 0,0 l/m 0,5 km/h (0 Bft) O-NO 67 0 min 0,0 UV-I 10,7 C 17,9 C 0,0 km/h (0 Bft)
02.04.2011 19:55 18,9 C 15,3 C 18,0 C 18,3 C 17,2 C 0,0 C 60 % 62 % 0 % 1014,0 hPa 0,0 l/m 0,6 km/h (0 Bft) O-NO 67 0 min 0,0 UV-I 11,0 C 17,2 C 0,0 km/h (0 Bft)
02.04.2011 20:00 18,7 C 15,3 C 17,6 C 18,0 C 16,7 C 0,0 C 61 % 63 % 0 % 1014,0 hPa 0,0 l/m 0,2 km/h (0 Bft) O-NO 67 0 min 0,0 UV-I 11,0 C 16,7 C 0,0 km/h (0 Bft)
02.04.2011 20:09 18,3 C 15,2 C 17,1 C 17,5 C 15,8 C 0,0 C 61 % 65 % 0 % 1014,0 hPa 0,0 l/m 0,0 km/h (0 Bft) N 0 0 min 0,0 UV-I 10,6 C 15,8 C 0,0 km/h (0 Bft)
02.04.2011 20:15 18,0 C 15,2 C 16,6 C 17,2 C 15,7 C 0,0 C 61 % 65 % 0 % 1014,1 hPa 0,0 l/m 0,0 km/h (0 Bft) NO 45 0 min 0,0 UV-I 10,4 C 15,7 C 0,0 km/h (0 Bft)
02.04.2011 20:20 17,9 C 15,2 C 16,5 C 17,1 C 15,6 C 0,0 C 62 % 67 % 0 % 1014,1 hPa 0,0 l/m 0,5 km/h (0 Bft) O-NO 67 0 min 0,0 UV-I 10,5 C 15,6 C 0,0 km/h (0 Bft)
02.04.2011 20:25 17,5 C 15,2 C 16,3 C 16,8 C 15,5 C 0,0 C 63 % 67 % 0 % 1014,1 hPa 0,0 l/m 1,0 km/h (0 Bft) O-NO 67 0 min 0,0 UV-I 10,4 C 15,5 C 0,0 km/h (0 Bft)
02.04.2011 20:30 17,5 C 15,2 C 16,0 C 16,7 C 15,2 C 0,0 C 64 % 68 % 0 % 1014,1 hPa 0,0 l/m 0,6 km/h (0 Bft) SW 225 0 min 0,0 UV-I 10,6 C 15,2 C 0,0 km/h (0 Bft)
02.04.2011 20:35 17,3 C 15,3 C 15,7 C 16,4 C 14,7 C 0,0 C 64 % 69 % 0 % 1014,0 hPa 0,0 l/m 0,2 km/h (0 Bft) SW 225 0 min 0,0 UV-I 10,4 C 14,7 C 0,0 km/h (0 Bft)
02.04.2011 20:40 17,1 C 15,3 C 15,6 C 16,2 C 14,5 C 0,0 C 65 % 70 % 0 % 1014,0 hPa 0,0 l/m 0,2 km/h (0 Bft) W-SW 247 0 min 0,0 UV-I 10,5 C 14,5 C 0,0 km/h (0 Bft)
02.04.2011 20:45 16,8 C 15,3 C 15,2 C 15,9 C 14,2 C 0,0 C 65 % 70 % 0 % 1014,0 hPa 0,0 l/m 0,2 km/h (0 Bft) W-SW 247 0 min 0,0 UV-I 10,2 C 14,2 C 0,0 km/h (0 Bft)
02.04.2011 20:50 16,8 C 15,3 C 15,1 C 15,8 C 13,9 C 0,0 C 66 % 70 % 0 % 1014,0 hPa 0,0 l/m 0,0 km/h (0 Bft) W-SW 247 0 min 0,0 UV-I 10,4 C 13,9 C 0,0 km/h (0 Bft)
02.04.2011 20:55 16,7 C 15,3 C 14,8 C 15,6 C 13,4 C 0,0 C 67 % 72 % 0 % 1013,9 hPa 0,0 l/m 0,0 km/h (0 Bft) W-SW 247 0 min 0,0 UV-I 10,5 C 13,4 C 0,0 km/h (0 Bft)
02.04.2011 21:00 16,5 C 15,2 C 14,7 C 15,4 C 13,2 C 0,0 C 68 % 72 % 0 % 1013,9 hPa 0,0 l/m 0,0 km/h (0 Bft) W-SW 247 0 min 0,0 UV-I 10,6 C 13,2 C 0,0 km/h (0 Bft)
02.04.2011 21:09 16,1 C 15,2 C 14,3 C 15,0 C 12,7 C 0,0 C 69 % 74 % 0 % 1013,9 hPa 0,0 l/m 0,0 km/h (0 Bft) N 0 0 min 0,0 UV-I 10,4 C 12,7 C 0,0 km/h (0 Bft)
02.04.2011 21:15 16,1 C 15,2 C 14,2 C 15,0 C 12,7 C 0,0 C 69 % 74 % 0 % 1013,9 hPa 0,0 l/m 0,3 km/h (0 Bft) S 180 0 min 0,0 UV-I 10,4 C 12,7 C 0,0 km/h (0 Bft)
02.04.2011 21:20 16,0 C 15,2 C 14,2 C 14,9 C 12,8 C 0,0 C 70 % 75 % 0 % 1013,9 hPa 0,0 l/m 0,3 km/h (0 Bft) O-NO 67 0 min 0,0 UV-I 10,5 C 12,8 C 0,0 km/h (0 Bft)
02.04.2011 21:25 15,8 C 15,2 C 14,0 C 14,8 C 12,7 C 0,0 C 70 % 74 % 0 % 1013,9 hPa 0,0 l/m 0,0 km/h (0 Bft) NW 315 0 min 0,0 UV-I 10,3 C 12,7 C 0,0 km/h (0 Bft)
02.04.2011 21:30 15,6 C 15,2 C 13,9 C 14,6 C 12,6 C 0,0 C 70 % 75 % 0 % 1013,9 hPa 0,0 l/m 0,0 km/h (0 Bft) W-SW 247 0 min 0,0 UV-I 10,1 C 12,6 C 1,6 km/h (1 Bft)
02.04.2011 21:35 15,7 C 15,1 C 13,7 C 14,7 C 12,7 C 0,0 C 70 % 76 % 0 % 1013,8 hPa 0,0 l/m 0,2 km/h (0 Bft) SW 225 0 min 0,0 UV-I 10,2 C 12,7 C 0,0 km/h (0 Bft)
02.04.2011 21:40 15,6 C 15,1 C 13,7 C 14,7 C 12,8 C 0,0 C 70 % 76 % 0 % 1013,8 hPa 0,0 l/m 0,2 km/h (0 Bft) W-SW 247 0 min 0,0 UV-I 10,1 C 12,8 C 1,6 km/h (1 Bft)
02.04.2011 21:45 15,5 C 15,2 C 13,6 C 14,7 C 13,0 C 0,0 C 70 % 76 % 0 % 1013,8 hPa 0,0 l/m 0,5 km/h (0 Bft) S-SO 157 0 min 0,0 UV-I 10,1 C 13,0 C 0,0 km/h (0 Bft)
02.04.2011 21:50 15,4 C 15,2 C 13,6 C 14,6 C 13,1 C 0,0 C 70 % 75 % 0 % 1013,8 hPa 0,0 l/m 0,5 km/h (0 Bft) W-SW 247 0 min 0,0 UV-I 10,0 C 13,1 C 0,0 km/h (0 Bft)
02.04.2011 21:55 15,5 C 15,1 C 13,7 C 14,7 C 13,2 C 0,0 C 70 % 75 % 0 % 1013,8 hPa 0,0 l/m 0,2 km/h (0 Bft) W-SW 247 0 min 0,0 UV-I 10,1 C 13,2 C 0,0 km/h (0 Bft)
02.04.2011 22:00 15,4 C 15,0 C 13,6 C 14,7 C 13,2 C 0,0 C 69 % 75 % 0 % 1013,8 hPa 0,0 l/m 0,0 km/h (0 Bft) NW 315 0 min 0,0 UV-I 9,7 C 13,2 C 0,0 km/h (0 Bft)
02.04.2011 22:09 15,3 C 15,0 C 13,7 C 14,7 C 13,4 C 0,0 C 69 % 76 % 0 % 1013,8 hPa 0,0 l/m 0,8 km/h (0 Bft) N 0 0 min 0,0 UV-I 9,6 C 13,4 C 2,6 km/h (1 Bft)
02.04.2011 22:15 15,2 C 15,0 C 13,7 C 14,6 C 13,5 C 0,0 C 70 % 75 % 0 % 1013,8 hPa 0,0 l/m 1,4 km/h (1 Bft) W-SW 247 0 min 0,0 UV-I 9,8 C 13,5 C 1,6 km/h (1 Bft)
02.04.2011 22:20 15,1 C 15,1 C 13,6 C 14,5 C 13,4 C 0,0 C 69 % 75 % 0 % 1013,8 hPa 0,0 l/m 1,1 km/h (1 Bft) S 180 0 min 0,0 UV-I 9,5 C 13,4 C 2,1 km/h (1 Bft)
02.04.2011 22:25 15,1 C 15,0 C 13,6 C 14,6 C 13,5 C 0,0 C 69 % 75 % 0 % 1013,8 hPa 0,0 l/m 1,0 km/h (0 Bft) SW 225 0 min 0,0 UV-I 9,5 C 13,5 C 2,1 km/h (1 Bft)
02.04.2011 22:30 15,0 C 15,0 C 13,6 C 14,5 C 13,5 C 0,0 C 70 % 75 % 0 % 1013,8 hPa 0,0 l/m 1,1 km/h (1 Bft) SW 225 0 min 0,0 UV-I 9,6 C 13,5 C 0,0 km/h (0 Bft)
02.04.2011 22:35 14,9 C 15,0 C 13,5 C 14,4 C 13,5 C 0,0 C 70 % 75 % 0 % 1013,7 hPa 0,0 l/m 0,6 km/h (0 Bft) S 180 0 min 0,0 UV-I 9,5 C 13,5 C 0,0 km/h (0 Bft)
02.04.2011 22:40 14,9 C 15,0 C 13,6 C 14,4 C 13,5 C 0,0 C 70 % 75 % 0 % 1013,7 hPa 0,0 l/m 0,5 km/h (0 Bft) S-SO 157 0 min 0,0 UV-I 9,5 C 13,5 C 0,0 km/h (0 Bft)
02.04.2011 22:45 14,8 C 15,0 C 13,5 C 14,3 C 13,3 C 0,0 C 69 % 74 % 0 % 1013,7 hPa 0,0 l/m 0,3 km/h (0 Bft) S-SO 157 0 min 0,0 UV-I 9,2 C 13,3 C 0,0 km/h (0 Bft)
02.04.2011 22:50 14,8 C 14,9 C 13,3 C 14,3 C 13,2 C 0,0 C 69 % 75 % 0 % 1013,7 hPa 0,0 l/m 0,2 km/h (0 Bft) SW 225 0 min 0,0 UV-I 9,2 C 13,2 C 2,6 km/h (1 Bft)
02.04.2011 22:55 14,7 C 14,9 C 13,4 C 14,2 C 13,2 C 0,0 C 70 % 75 % 0 % 1013,6 hPa 0,0 l/m 0,3 km/h (0 Bft) S-SO 157 0 min 0,0 UV-I 9,3 C 13,2 C 0,0 km/h (0 Bft)
02.04.2011 23:00 14,7 C 14,9 C 13,2 C 14,2 C 13,2 C 0,0 C 70 % 75 % 0 % 1013,6 hPa 0,0 l/m 0,5 km/h (0 Bft) SW 225 0 min 0,0 UV-I 9,3 C 13,2 C 0,0 km/h (0 Bft)
02.04.2011 23:09 14,5 C 14,9 C 12,9 C 13,9 C 12,8 C 0,0 C 70 % 76 % 0 % 1013,6 hPa 0,0 l/m 0,0 km/h (0 Bft) N 0 0 min 0,0 UV-I 9,1 C 12,8 C 0,0 km/h (0 Bft)
02.04.2011 23:15 14,5 C 14,9 C 12,9 C 13,8 C 12,5 C 0,0 C 70 % 76 % 0 % 1013,6 hPa 0,0 l/m 0,0 km/h (0 Bft) W-SW 247 0 min 0,0 UV-I 9,1 C 12,5 C 0,0 km/h (0 Bft)
02.04.2011 23:20 14,4 C 14,9 C 12,8 C 13,7 C 12,4 C 0,0 C 71 % 76 % 0 % 1013,6 hPa 0,0 l/m 0,0 km/h (0 Bft) W-SW 247 0 min 0,0 UV-I 9,2 C 12,4 C 0,0 km/h (0 Bft)
02.04.2011 23:25 14,3 C 14,8 C 12,6 C 13,6 C 12,3 C 0,0 C 71 % 76 % 0 % 1013,6 hPa 0,0 l/m 0,2 km/h (0 Bft) O-NO 67 0 min 0,0 UV-I 9,1 C 12,3 C 0,0 km/h (0 Bft)
02.04.2011 23:30 14,3 C 14,8 C 12,7 C 13,6 C 12,3 C 0,0 C 71 % 77 % 0 % 1013,6 hPa 0,0 l/m 0,2 km/h (0 Bft) S 180 0 min 0,0 UV-I 9,1 C 12,3 C 2,1 km/h (1 Bft)
02.04.2011 23:35 14,3 C 14,7 C 12,8 C 13,7 C 12,5 C 0,0 C 71 % 77 % 0 % 1014,2 hPa 0,0 l/m 1,0 km/h (0 Bft) S 180 0 min 0,0 UV-I 9,1 C 12,5 C 3,5 km/h (1 Bft)
02.04.2011 23:40 14,3 C 14,6 C 12,9 C 13,8 C 12,8 C 0,0 C 71 % 76 % 0 % 1014,2 hPa 0,0 l/m 1,1 km/h (1 Bft) S 180 0 min 0,0 UV-I 9,1 C 12,8 C 0,0 km/h (0 Bft)
02.04.2011 23:45 14,3 C 14,6 C 12,9 C 13,8 C 12,9 C 0,0 C 72 % 77 % 0 % 1014,2 hPa 0,0 l/m 1,0 km/h (0 Bft) O-NO 67 0 min 0,0 UV-I 9,3 C 12,9 C 2,1 km/h (1 Bft)
02.04.2011 23:50 14,3 C 14,6 C 13,2 C 13,9 C 13,1 C 0,0 C 72 % 76 % 0 % 1014,2 hPa 0,0 l/m 0,8 km/h (0 Bft) O-NO 67 0 min 0,0 UV-I 9,3 C 13,1 C 2,7 km/h (1 Bft)
02.04.2011 23:55 14,2 C 14,6 C 13,3 C 13,9 C 13,3 C 0,0 C 71 % 75 % 0 % 1013,9 hPa 0,0 l/m 1,1 km/h (1 Bft) O-SO 112 0 min 0,0 UV-I 9,0 C 13,3 C 0,0 km/h (0 Bft)
_ Min-Zeit 06:45 09:15 06:45 06:45 06:45 00:00 17:50 15:30 00:00 22:55 - 00:30 - - - 00:00 06:45 06:45 00:00
Minimum _ 9,8 C 12,2 C 8,4 C 9,2 C 7,9 C 0,0 C 46 % 38 % 0 % 1013,6 hPa - 0,0 km/h (0 Bft) - - - 0,0 UV-I 7,6 C 7,9 C 0,0 km/h (0 Bft)
_ Max-Zeit 17:30 18:50 15:25 15:25 15:25 12:35 07:09 07:15 08:35 00:15 00:00 16:09 - - 10:10 13:09 11:35 15:25 13:09
Maximum _ 22,7 C 15,3 C 28,4 C 28,0 C 28,0 C 6,6 C 87 % 91 % 100 % 1021,2 hPa 0,0 l/m 7,6 km/h
N (2 Bft)
- - 10 min 2,7 UV-I 12,2 C 28,0 C 15,3 km/h
N (3 Bft)
Durchschnitt _ 16,0 C 13,8 C 16,0 C 17,7 C 17,2 C 2,0 C 70 % 70 % 43 % 1017,4 hPa #0,0 l/m 1,4 km/h (1 Bft) SW - #10:06 h 1,2 UV-I 10,0 C 17,2 C 1,8 km/h (1 Bft)
2013 www.wetterstation-wechselburg.de